Location: Asni�res
(49.1337°N, 2.3555°E)
Time: 11:10:14
(UTC+00:00)

Cosmos 1626 Rocket - Pass Details

Date: 05 June 2022
Orbit: 602 x 631 km, 82.5° (Epoch: 01 July)

Event Time Altitude Azimuth Distance (km) Brightness Sun altitude
Exits shadow 01:44:01 - 151° (SSE) 2,336 6.2 -13.9°
Reaches altitude 10° 01:45:04 10° 145° (SE) 1,968 5.9 -13.8°
Maximum altitude 01:48:41 26° 89° (E) 1,212 5.4 -13.5°
Drops below altitude 10° 01:52:18 10° 32° (NNE) 1,969 7.6 -13.3°
Sets 01:54:46 0° 20° (NNE) 2,874 8.9 -13.1°
